Flight Track Log - Related Links

Times and Time Zones

All times are in EDT time to prevent confusion due to time zone crossing. See the MKU212 flight status page for this flight to view local times or setup timezone preferences in your user account.

Time Position Orientation Groundspeed Altitude Reporting Facility
EDT Latitude Longitude Course Direction KTS MPH feet Rate Location/Type
Sun 07:52:54 PM 21.3167 -157.9333 205° Southwest 130 150 800  Level Honolulu Center
Sun 07:53:53 PM 21.2833 -157.9500 205° Southwest 160 184 1,800 1,100 Climbing Honolulu Center
Sun 07:54:54 PM 21.2333 -157.9333 163° South 160 184 3,000 1,140 Climbing Honolulu Center
Sun 07:55:54 PM 21.1833 -157.9167 163° South 170 196 4,100 1,200 Climbing Honolulu Center
Sun 07:56:54 PM 21.1500 -157.8833 137° Southeast 190 219 5,400 1,200 Climbing Honolulu Center
Sun 07:57:54 PM 21.1333 -157.8333 110° East 190 219 6,500 800 Climbing Honolulu Center
Sun 07:58:54 PM 21.1167 -157.7667 105° East 240 276 7,000 250 Climbing Honolulu Center
Sun 07:59:54 PM 21.1167 -157.7000 90° East 240 276 7,000 -298 Level Honolulu Center
Sun 08:00:55 PM 21.1167 -157.6333 90° East 240 276 6,400 -843 Descending Honolulu Center
Sun 08:01:55 PM 21.1167 -157.5500 90° East 240 276 5,300 -706 Descending Honolulu Center
Sun 08:02:54 PM 21.1167 -157.5000 90° East 190 219 5,000 -150 Descending Honolulu Center
Sun 08:03:55 PM 21.1167 -157.4500 90° East 180 207 5,000 -347 Level Honolulu Center
Sun 08:04:55 PM 21.1167 -157.3833 90° East 200 230 4,300 -800 Descending Honolulu Center
Sun 08:05:55 PM 21.1167 -157.3167 90° East 210 242 3,400 -900 Descending Honolulu Center
Sun 08:06:55 PM 21.1167 -157.2667 90° East 200 230 2,500 -500 Descending Honolulu Center
Sun 08:07:55 PM 21.1333 -157.2167 70° East 160 184 2,400 -50 Descending Honolulu Center
Sun 08:08:55 PM 21.1333 -157.1667 90° East 150 173 2,400 -250 Level Honolulu Center
Sun 08:09:55 PM 21.1333 -157.1333 90° East 150 173 1,900 -545 Descending Honolulu Center
Sun 08:10:56 PM 21.1500 -157.0833 70° East 140 161 1,300 -298 Descending Honolulu Center
Sun 08:11:56 PM 21.1333 -157.0500 118° Southeast 130 150 1,300 -150 Level Honolulu Center
Sun 08:12:56 PM 21.1500 -157.0667 317° Northwest 90 104 1,000 -300 Descending Honolulu Center

Login

Don't have an account? Register now (free) for customized features, flight alerts, and more!